DECAYED

RESURS P1 DEB, 60222 (Decayed)

Orbit data source: Space-Track

RESURS P1 DEB, 60222 was space debris in LEO originally from a Commonwealth of Independent States-origin launch on Tue, 25 Jun 2013 UTC launched from the Tyuratam Missile And Space Complex (TTMTR). Debris objects in space refer to the collection of defunct objects orbiting the Earth. Examples of debris include non-operational satellites, rocket bodies, and fragments generated from explosions, collisions, or faulty payload assembly.

Not visible in the next 10 days
Identifier
60222, 2013-030L
Orbit
Decayed
Country
Flag of CISCIS
Related business
Manufacturer
TSSKBP?
Mission
Decayed spacecraft
Bus & Motor
Unknown
Mass
Unknown
Launch date (UTC)
2013-06-25 (12 years ago)
Launch vehicle
Unknown
Launch site
Tyuratam Missile And Space Complex (TTMTR)
Object type
Payload
Rocket body
Debris
Shape & HBR
Unknown
Radar Cross Section
Small (<0.1 m²)

Expand to show TLE details & history
Last TLE update: 1 year ago

TLE from 1 year ago
0 RESURS P1 DEB
1 60222U 13030L   24214.08451615  .04257955  22011-5  20902-2 0  9995
2 60222  96.9916 265.0887 0012533 257.3569 102.6320 16.20863985  5547
Epoch: 2024-08-01T02:01Z
TLE epoch observation values (Epoch: 2024-08-01T02:01:42.195Z)
Latitude
-0.00004°
Longitude
-75.51593°
Altitude
222.263 km
Speed
7.772 km/s
True Right ascension
17h 40m 21s
True Declination
0° 00' 00"
Sunlit
Object was in full shadow at epoch
Visualization orbit readout
Latitude
Unknown
Longitude
Unknown
Altitude
Unknown
Speed
Unknown
Apparent Right ascension
Unknown
Apparent Declination
Unknown
Sunlit
N/A
Visualization observer readout
Local Sidereal Time
00:07:04
Azimuth
Unknown
Elevation
Unknown
Doppler factor
Unknown
Orbital elements
Apogee altitude
222.284 km
Perigee altitude
205.76 km
Semi-major axis
6,592.159 km
Eccentricity
0.00125
Inclination
96.9916°
RAAN
265.0887°
Arg. of periapsis
257.3569°
True anomaly
102.77209°
Mean anomaly
102.632°
Eccentric anomaly
102.70205°
Mean motion
4.0551 °/min
Orbital period
88.78 mins
BSTAR
0.0020902
Loading maneuver chart data...
Computing Atmospheric mass density...

Documentation

Showing up to 5 results
|